Location: Biltmore Gardens
(41.6070°N, 83.4666°W)
Time: 15:15:30
(UTC+00:00)

Okean 2 - Pass Details

Date: 14 July 2020
Orbit: 559 x 578 km, 82.5° (Epoch: 12 August)

Event Time Altitude Azimuth Distance (km) Brightness Sun altitude
Rises 08:57:48 0° 352° (N) 2,760 7.4 -12.0°
Reaches altitude 10° 08:59:59 10° 353° (N) 1,858 6.5 -11.7°
Maximum altitude 09:04:04 85° 81° (E) 567 3.4 -11.1°
Drops below altitude 10° 09:08:08 10° 172° (S) 1,840 5.7 -10.6°
Sets 09:10:17 0° 172° (S) 2,731 6.5 -10.3°
